When you browse on this site, cookies collect data to enhance your experience and personalize the content and advertising you see.
Visit our Privacy Policy to learn more. By continuing to use the site, you agree to this use of cookies and data.
  • En España
  • Lista de países
  • Para 7 días
  • Temperatura del agua
  • El tiempo en el mapa
  • Informadores
  • user-avatar
    Iniciar sesión

    Tiempo cada hora Macapa

    Hoy, 28 Febrero, Viernes

    Tiempo Temperatura Precipitaciones Viento Presión Humedad
    00:00 +26°C° 0 mm 3 mps 759 mmHg 85%
    01:00 +25°C° 0 mm 3 mps 759 mmHg 86%
    02:00 +25°C° 0 mm 3 mps 758 mmHg 87%
    03:00 +25°C° 0 mm 3 mps 758 mmHg 88%
    04:00 +25°C° 0 mm 3 mps 758 mmHg 88%
    05:00 +25°C° 0 mm 3 mps 758 mmHg 89%
    06:00 +24°C° 0 mm 3 mps 758 mmHg 90%
    07:00 +26°C° 0 mm 3 mps 759 mmHg 86%
    08:00 +27°C° 0 mm 3 mps 760 mmHg 81%
    09:00 +28°C° 0 mm 3 mps 760 mmHg 77%
    10:00 +29°C° 0 mm 3 mps 760 mmHg 72%
    11:00 +31°C° 0 mm 3 mps 760 mmHg 67%
    12:00 +32°C° 0 mm 2 mps 759 mmHg 62%
    13:00 +34°C° 0 mm 2 mps 759 mmHg 60%
    14:00 +34°C° 0 mm 2 mps 758 mmHg 57%
    15:00 +35°C° 0 mm 2 mps 757 mmHg 55%
    16:00 +32°C° 0.1 mm 2 mps 757 mmHg 62%
    17:00 +31°C° 0.1 mm 3 mps 757 mmHg 68%
    18:00 +30°C° 0.1 mm 3 mps 756 mmHg 74%
    19:00 +29°C° 0 mm 3 mps 757 mmHg 79%
    20:00 +28°C° 0 mm 3 mps 758 mmHg 83%
    21:00 +27°C° 0 mm 3 mps 758 mmHg 87%
    22:00 +27°C° 0 mm 3 mps 759 mmHg 88%
    23:00 +27°C° 0 mm 3 mps 759 mmHg 89%

    Mañana, 29 Febrero, Sábado

    Tiempo Temperatura Precipitaciones Viento Presión Humedad
    00:00 +26°C° 0 mm 3 mps 759 mmHg 89%
    01:00 +26°C° 0 mm 3 mps 759 mmHg 90%
    02:00 +26°C° 0 mm 3 mps 758 mmHg 91%
    03:00 +25°C° 0 mm 2 mps 758 mmHg 92%
    04:00 +25°C° 0 mm 2 mps 758 mmHg 93%
    05:00 +25°C° 0 mm 2 mps 758 mmHg 93%
    06:00 +25°C° 0 mm 2 mps 758 mmHg 94%
    07:00 +26°C° 0 mm 2 mps 759 mmHg 89%
    08:00 +27°C° 0 mm 2 mps 759 mmHg 83%
    09:00 +29°C° 0 mm 2 mps 760 mmHg 77%
    10:00 +30°C° 0 mm 2 mps 760 mmHg 71%
    11:00 +32°C° 0 mm 2 mps 760 mmHg 64%
    12:00 +34°C° 0 mm 2 mps 759 mmHg 58%
    13:00 +34°C° 0.4 mm 2 mps 758 mmHg 60%
    14:00 +34°C° 0.4 mm 2 mps 757 mmHg 61%
    15:00 +34°C° 0.4 mm 2 mps 756 mmHg 63%
    16:00 +32°C° 1.6 mm 2 mps 756 mmHg 71%
    17:00 +30°C° 1.6 mm 2 mps 756 mmHg 78%
    18:00 +29°C° 1.6 mm 3 mps 756 mmHg 86%
    19:00 +28°C° 0.4 mm 3 mps 757 mmHg 88%
    20:00 +28°C° 0.4 mm 3 mps 758 mmHg 89%
    21:00 +27°C° 0.4 mm 3 mps 758 mmHg 91%
    22:00 +27°C° 0.6 mm 3 mps 758 mmHg 91%
    23:00 +27°C° 0.6 mm 3 mps 759 mmHg 92%

    Pasado mañana, 1 Marzo, Domingo

    Tiempo Temperatura Precipitaciones Viento Presión Humedad
    00:00 +27°C° 0.6 mm 3 mps 759 mmHg 92%
    01:00 +26°C° 0.3 mm 3 mps 758 mmHg 93%
    02:00 +26°C° 0.3 mm 3 mps 758 mmHg 93%
    03:00 +26°C° 0.3 mm 3 mps 757 mmHg 94%
    04:00 +26°C° 0.4 mm 3 mps 757 mmHg 95%
    05:00 +26°C° 0.4 mm 3 mps 757 mmHg 95%
    06:00 +26°C° 0.4 mm 3 mps 758 mmHg 96%
    07:00 +27°C° 0.4 mm 3 mps 758 mmHg 92%
    08:00 +28°C° 0.4 mm 3 mps 759 mmHg 88%
    09:00 +28°C° 0.4 mm 3 mps 759 mmHg 85%
    10:00 +29°C° 1.3 mm 3 mps 759 mmHg 81%
    11:00 +31°C° 1.3 mm 3 mps 759 mmHg 77%
    12:00 +33°C° 1.3 mm 3 mps 759 mmHg 73%
    13:00 +32°C° 1.8 mm 2 mps 758 mmHg 74%
    14:00 +31°C° 1.8 mm 2 mps 757 mmHg 76%
    15:00 +31°C° 1.8 mm 2 mps 756 mmHg 77%
    16:00 +30°C° 1.9 mm 2 mps 756 mmHg 81%
    17:00 +30°C° 1.9 mm 2 mps 756 mmHg 85%
    18:00 +29°C° 1.9 mm 2 mps 756 mmHg 89%
    19:00 +28°C° 1.2 mm 2 mps 757 mmHg 90%
    20:00 +27°C° 1.2 mm 2 mps 757 mmHg 91%
    21:00 +27°C° 1.2 mm 3 mps 758 mmHg 93%
    22:00 +27°C° 0.3 mm 3 mps 758 mmHg 93%
    23:00 +26°C° 0.3 mm 3 mps 758 mmHg 93%

    2 Marzo, Lunes

    Tiempo Temperatura Precipitaciones Viento Presión Humedad
    00:00 +26°C° 0.3 mm 3 mps 758 mmHg 94%
    01:00 +26°C° 0.1 mm 3 mps 758 mmHg 94%
    02:00 +26°C° 0.1 mm 3 mps 757 mmHg 95%
    03:00 +26°C° 0.1 mm 3 mps 757 mmHg 95%
    04:00 +26°C° 0.2 mm 3 mps 757 mmHg 95%
    05:00 +26°C° 0.2 mm 3 mps 757 mmHg 95%
    06:00 +26°C° 0.2 mm 3 mps 757 mmHg 95%
    07:00 +27°C° 0 mm 3 mps 757 mmHg 90%
    08:00 +28°C° 0 mm 3 mps 758 mmHg 86%
    09:00 +29°C° 0 mm 3 mps 758 mmHg 82%
    10:00 +30°C° 0.2 mm 3 mps 758 mmHg 78%
    11:00 +31°C° 0.2 mm 3 mps 758 mmHg 73%
    12:00 +33°C° 0.2 mm 3 mps 758 mmHg 69%
    13:00 +33°C° 0.7 mm 3 mps 757 mmHg 70%
    14:00 +33°C° 0.7 mm 4 mps 757 mmHg 70%
    15:00 +33°C° 0.7 mm 4 mps 756 mmHg 70%
    16:00 +32°C° 1.4 mm 4 mps 756 mmHg 76%
    17:00 +30°C° 1.4 mm 3 mps 756 mmHg 82%
    18:00 +29°C° 1.4 mm 3 mps 756 mmHg 88%
    19:00 +28°C° 0.6 mm 3 mps 756 mmHg 90%
    20:00 +28°C° 0.6 mm 3 mps 757 mmHg 91%
    21:00 +27°C° 0.6 mm 2 mps 757 mmHg 93%
    22:00 +27°C° 0 mm 2 mps 758 mmHg 93%
    23:00 +26°C° 0 mm 2 mps 758 mmHg 94%

    3 Marzo, Martes

    Tiempo Temperatura Precipitaciones Viento Presión Humedad
    00:00 +26°C° 0 mm 2 mps 758 mmHg 94%
    01:00 +26°C° 0 mm 2 mps 758 mmHg 95%
    02:00 +26°C° 0 mm 2 mps 757 mmHg 95%
    03:00 +25°C° 0 mm 2 mps 756 mmHg 95%
    04:00 +25°C° 0 mm 2 mps 757 mmHg 96%
    05:00 +25°C° 0 mm 2 mps 757 mmHg 96%
    06:00 +25°C° 0 mm 2 mps 757 mmHg 96%
    07:00 +26°C° 0 mm 3 mps 757 mmHg 92%
    08:00 +27°C° 0 mm 3 mps 758 mmHg 89%
    09:00 +28°C° 0 mm 3 mps 759 mmHg 85%
    10:00 +29°C° 0.5 mm 3 mps 758 mmHg 82%
    11:00 +30°C° 0.5 mm 3 mps 758 mmHg 78%
    12:00 +31°C° 0.5 mm 3 mps 758 mmHg 74%
    13:00 +31°C° 0.9 mm 3 mps 758 mmHg 75%
    14:00 +31°C° 0.9 mm 3 mps 757 mmHg 76%
    15:00 +31°C° 0.9 mm 3 mps 756 mmHg 77%
    16:00 +30°C° 0.3 mm 3 mps 756 mmHg 79%
    17:00 +30°C° 0.3 mm 3 mps 756 mmHg 82%
    18:00 +29°C° 0.3 mm 3 mps 756 mmHg 84%
    19:00 +28°C° 0.1 mm 3 mps 756 mmHg 86%
    20:00 +27°C° 0.1 mm 3 mps 757 mmHg 88%
    21:00 +27°C° 0.1 mm 3 mps 758 mmHg 90%
    22:00 +26°C° 0 mm 3 mps 758 mmHg 91%
    23:00 +26°C° 0 mm 3 mps 758 mmHg 91%

    4 Marzo, Miércoles

    Tiempo Temperatura Precipitaciones Viento Presión Humedad
    00:00 +26°C° 0 mm 3 mps 759 mmHg 92%
    01:00 +26°C° 0 mm 3 mps 758 mmHg 92%
    02:00 +25°C° 0 mm 3 mps 758 mmHg 92%
    03:00 +25°C° 0 mm 3 mps 757 mmHg 93%
    04:00 +25°C° 0 mm 3 mps 757 mmHg 93%
    05:00 +25°C° 0 mm 3 mps 757 mmHg 92%
    06:00 +25°C° 0 mm 3 mps 758 mmHg 92%
    07:00 +26°C° 0 mm 3 mps 758 mmHg 87%
    08:00 +28°C° 0 mm 3 mps 759 mmHg 82%
    09:00 +29°C° 0 mm 3 mps 760 mmHg 76%
    10:00 +30°C° 0 mm 3 mps 759 mmHg 71%
    11:00 +31°C° 0 mm 3 mps 759 mmHg 66%
    12:00 +34°C° 0 mm 3 mps 759 mmHg 60%
    13:00 +34°C° 0 mm 4 mps 758 mmHg 59%
    14:00 +34°C° 0 mm 4 mps 758 mmHg 59%
    15:00 +34°C° 0 mm 4 mps 757 mmHg 58%
    16:00 +33°C° 0 mm 4 mps 757 mmHg 62%
    17:00 +32°C° 0 mm 4 mps 757 mmHg 67%
    18:00 +30°C° 0 mm 4 mps 756 mmHg 71%
    19:00 +29°C° 0 mm 4 mps 757 mmHg 75%
    20:00 +28°C° 0 mm 4 mps 758 mmHg 78%
    21:00 +27°C° 0 mm 4 mps 759 mmHg 82%
    22:00 +27°C° 0 mm 3 mps 759 mmHg 84%
    23:00 +26°C° 0 mm 3 mps 759 mmHg 85%
    Mostrar más